FW6644 Weather Reports


Display with metric or nautical units.
time (UTC)temp
F
wind
direction
speed
MPH
gust
MPH
rain 1hr
in
rain 24hr
in
rain mn
in
humidity
%
barometer
mb
20260505101547 66 165 2.0 10.0 0.00 0.00 0.00 58 1009.1
20260505100045 66 358 3.0 11.0 0.00 0.00 0.00 58 1009.1
20260505094543 66 177 0.0 9.0 0.00 0.00 0.00 57 1009.2
20260505093042 66 143 1.0 9.0 0.00 0.00 0.00 57 1009.2
20260505091541 66 212 2.0 7.0 0.00 0.00 0.00 58 1009.4
20260505090040 67 183 4.0 9.0 0.00 0.00 0.00 59 1009.4
20260505084536 67 98 2.0 12.0 0.00 0.00 0.00 57 1009.7
20260505083032 67 20 3.0 14.0 0.00 0.00 0.00 56 1009.7
20260505081541 68 173 3.0 10.0 0.00 0.00 0.00 51 1009.9
20260505080033 69 187 6.0 14.0 0.00 0.00 0.00 47 1010.0
20260505074522 69 212 6.0 18.0 0.00 0.00 0.00 43 1009.9
20260505073023 70 177 4.0 12.0 0.00 0.00 0.00 43 1009.7
20260505071626 70 269 2.0 9.0 0.00 0.00 0.00 42 1009.8
20260505070016 70 294 6.0 11.0 0.00 0.00 0.00 41 1009.8
20260505064521 70 103 4.0 13.0 0.00 0.00 0.00 39 1009.8
20260505063014 71 200 5.0 13.0 0.00 0.00 0.00 36 1009.3
20260505061511 71 193 4.0 15.0 0.00 0.00 0.00 33 1009.2
20260505060006 72 136 4.0 12.0 0.00 0.00 0.00 31 1009.2
20260505054505 72 221 4.0 10.0 0.00 0.00 0.00 31 1009.1
20260505053004 73 150 3.0 12.0 0.00 0.00 0.00 30 1009.5
20260505051507 73 195 5.0 11.0 0.00 0.00 0.00 30 1009.7
20260505041503 74 176 1.0 6.0 0.00 0.00 0.00 40 1009.2
20260505040106 74 229 3.0 6.0 0.00 0.00 0.00 40 1009.2
20260505034600 75 179 1.0 5.0 0.00 0.00 0.00 39 1009.0
20260505034503 75 214 2.0 5.0 0.00 0.00 0.00 39 1009.0
20260505033100 74 121 1.0 4.0 0.00 0.00 0.00 39 1008.8
20260505031600 74 248 0.0 0.0 0.00 0.00 0.00 40 1008.3
20260505030104 75 232 0.0 1.0 0.00 0.00 0.00 39 1008.3
20260505024558 76 246 0.0 5.0 0.00 0.00 0.00 37 1008.3
20260505023107 76 207 2.0 7.0 0.00 0.00 0.00 35 1008.2
20260505021600 76 212 1.0 6.0 0.00 0.00 0.00 33 1008.1
20260505020058 76 221 1.0 5.0 0.00 0.00 0.00 33 1008.1
20260505014556 77 248 0.0 4.0 0.00 0.00 0.00 33 1007.9
20260505013055 77 218 1.0 5.0 0.00 0.00 0.00 32 1007.6
20260505011556 77 253 0.0 3.0 0.00 0.00 0.00 33 1007.7
20260505004554 78 340 0.0 4.0 0.00 0.00 0.00 35 1007.9
20260505003057 78 235 1.0 4.0 0.00 0.00 0.00 34 1007.9
20260505001553 78 231 0.0 3.0 0.00 0.00 0.00 35 1007.9
20260504234552 78 240 1.0 4.0 0.00 0.00 0.00 36 1008.3
20260504233054 78 314 0.0 4.0 0.00 0.00 0.00 36 1008.3
20260504231549 78 7 0.0 3.0 0.00 0.00 0.00 36 1008.0
20260504230050 77 277 0.0 4.0 0.00 0.00 0.00 37 1008.1
20260504224550 77 27 1.0 4.0 0.00 0.00 0.00 36 1008.3
20260504223048 77 255 0.0 6.0 0.00 0.00 0.00 37 1008.5
20260504221548 77 9 4.0 9.0 0.00 0.00 0.00 37 1008.6
20260504220109 78 330 3.0 7.0 0.00 0.00 0.00 36 1008.7
20260504214553 77 347 0.0 5.0 0.00 0.00 0.00 37 1008.6
20260504213052 77 291 1.0 5.0 0.00 0.00 0.00 38 1009.2
20260504211545 77 288 2.0 7.0 0.00 0.00 0.00 37 1009.6
20260504210045 79 235 2.0 9.0 0.00 0.00 0.00 33 1009.5
20260504204545 79 194 2.0 10.0 0.00 0.00 0.00 32 1009.5
20260504203043 80 280 2.0 9.0 0.00 0.00 0.00 31 1009.4
20260504201542 80 49 2.0 10.0 0.00 0.00 0.00 32 1009.3
20260504200048 78 243 2.0 9.0 0.00 0.00 0.00 35 1009.4
20260504194545 78 333 1.0 9.0 0.00 0.00 0.00 37 1009.3
20260504193039 79 287 3.0 10.0 0.00 0.00 0.00 35 1009.8
20260504191551 80 243 2.0 7.0 0.00 0.00 0.00 34 1009.8
20260504190044 79 244 5.0 11.0 0.00 0.00 0.00 32 1009.5
20260504184551 79 115 3.0 8.0 0.00 0.00 0.00 31 1009.4
20260504183041 78 203 4.0 9.0 0.00 0.00 0.00 32 1009.7
20260504181539 78 228 3.0 14.0 0.00 0.00 0.00 32 1010.2
20260504180033 77 283 2.0 8.0 0.00 0.00 0.00 33 1009.9
20260504174531 78 173 3.0 8.0 0.00 0.00 0.00 33 1009.5
20260504173029 77 184 1.0 6.0 0.00 0.00 0.00 33 1009.4
20260504171528 77 129 4.0 12.0 0.00 0.00 0.00 33 1009.8